Home   Weather   Charlotte Amalie   Past weeks
Flag for US Virgin Islands

Past Weather in Charlotte Amalie, US Virgin Islands — Yesterday and Last 2 Weeks

Now
80 °F

Clear.


Feels Like: 84 °F
Forecast: 86 / 79 °F
Wind: 7 mph from East

Location: Cyril E. King International Airport

Current Time: May 20, 2019 at 12:39:04 am

Latest Report: May 19, 2019 at 11:53 pm


Visibility: 10 mi

Pressure: 30.00 "Hg

Humidity: 79%

Dew Point: 73 °F

Location of Charlotte AmalieLocation

Past Weather in Charlotte Amalie — Graph

°F

Charlotte Amalie Temperature Yesterday

Maximum temperature yesterday: 86 °F (at 1:53 pm)
Minimum temperature yesterday: 79 °F (at 1:53 am)
Average temperature yesterday: 82 °F

High & Low Weather Summary for the Past Weeks

 TemperatureHumidityPressure
High87 °F (May 11, 11:53 am)89% (May 6, 4:36 am)30.09 "Hg (May 6, 4:36 am)
Low75 °F (May 6, 4:21 am)55% (May 8, 2:53 pm)29.92 "Hg (May 10, 3:53 am)
Average81 °F72%30.00 "Hg
* Reported May 4 10:53 pm — May 19 10:53 pm, Charlotte Amalie. Weather by CustomWeather, © 2019

Note: Actual official high and low records may vary slightly from our data, if they occured in-between our weather recording intervals... More about our weather records

Advertising

Charlotte Amalie Weather History for the Previous 24 Hours

Scroll right to see more
 ConditionsComfort  
Time TempWeatherWind HumidityBarometerVisibility
10:53 pm
Sun, May 19
81 °FClear.12 mph77%30.01 "Hg10 mi
9:53 pm81 °FPassing clouds.8 mph77%30.01 "Hg10 mi
8:53 pm81 °FClear.6 mph77%30.00 "Hg10 mi
7:53 pm81 °FPassing clouds.9 mph72%29.98 "Hg10 mi
7:00 pm82 °FPassing clouds.8 mph77%29.97 "Hg10 mi
5:53 pm83 °FPassing clouds.9 mph72%29.96 "Hg10 mi
4:53 pm83 °FSunny.10 mph72%29.96 "Hg10 mi
3:53 pm84 °FPassing clouds.14 mph70%29.95 "Hg10 mi
2:53 pm84 °FPassing clouds.9 mph70%29.96 "Hg10 mi
1:53 pm86 °FSunny.14 mph67%29.98 "Hg10 mi
12:53 pm85 °FSunny.15 mph68%30.00 "Hg10 mi
11:53 am85 °FSunny.15 mph68%30.01 "Hg10 mi
10:53 am85 °FSunny.15 mph68%30.01 "Hg10 mi
10:34 am85 °FPassing clouds.13 mph65%30.01 "Hg10 mi
9:53 am85 °FPassing clouds.15 mph68%30.01 "Hg10 mi
8:53 am85 °FScattered clouds.13 mph65%30.00 "Hg10 mi
7:53 am83 °FScattered clouds.13 mph68%30.00 "Hg10 mi
6:53 am82 °FSunny.9 mph72%29.99 "Hg10 mi
5:53 am79 °FScattered clouds.7 mph77%29.98 "Hg10 mi
4:53 am79 °FClear.8 mph77%29.96 "Hg10 mi
3:53 am79 °FClear.6 mph77%29.95 "Hg10 mi
2:53 am79 °FClear.7 mph77%29.95 "Hg10 mi
1:53 am79 °FClear.7 mph79%29.96 "Hg10 mi
12:53 am80 °FClear.12 mph76%29.98 "Hg10 mi
Weather by CustomWeather, © 2019

See weather overview